This is the latest recevied weather packets stored in our database for station/object DG8SF-13. If no packets are shown the sender has not sent any weather packets the latest 10 day(s).
| Time | Temp. | Humidity | Pressure | Rain* | Wind** | Luminosity | Snow |
|---|---|---|---|---|---|---|---|
| 1777806691 | 26.11° C | 28% | 1013.5 hPa | 0 mm | - | - | - |
| 1777806379 | 26.67° C | 25% | 1013.6 hPa | 0 mm | - | - | - |
| 1777806067 | 26.11° C | 26% | 1013.7 hPa | 0 mm | - | - | - |
| 1777805757 | 26.11° C | 30% | 1013.7 hPa | 0 mm | - | - | - |
| 1777802635 | 23.89° C | 31% | 1014.4 hPa | 0 mm | - | - | - |
| 1777801698 | 23.89° C | 32% | 1014.7 hPa | 0 mm | - | - | - |
| 1777801074 | 24.44° C | 31% | 1014.9 hPa | 0 mm | - | - | - |
| 1777800764 | 23.33° C | 32% | 1014.8 hPa | 0 mm | - | - | - |
| 1777800452 | 23.33° C | 31% | 1014.9 hPa | 0 mm | - | - | - |
| 1777800140 | 23.33° C | 32% | 1014.9 hPa | 0 mm | - | - | - |
| 1777799827 | 22.78° C | 31% | 1015 hPa | 0 mm | - | - | - |
| 1777799515 | 22.78° C | 32% | 1015 hPa | 0 mm | - | - | - |
| 1777799201 | 23.33° C | 32% | 1015 hPa | 0 mm | - | - | - |
| 1777798893 | 22.78° C | 31% | 1015 hPa | 0 mm | - | - | - |
| 1777798579 | 23.33° C | 31% | 1015 hPa | 0 mm | - | - | - |
| 1777798266 | 23.33° C | 36% | 1015 hPa | 0 mm | - | - | - |
| 1777797955 | 22.78° C | 31% | 1015 hPa | 0 mm | - | - | - |
| 1777797644 | 22.22° C | 35% | 1015.1 hPa | 0 mm | - | - | - |
| 1777797331 | 21.67° C | 43% | 1015.1 hPa | 0 mm | - | - | - |
| 1777797019 | 22.22° C | 46% | 1015.1 hPa | 0 mm | - | - | - |
| 1777796710 | 21.67° C | 42% | 1015.1 hPa | 0 mm | - | - | - |
| 1777796395 | 21.11° C | 43% | 1015.3 hPa | 0 mm | - | - | - |
| 1777796083 | 20.56° C | 48% | 1015.2 hPa | 0 mm | - | - | - |
| 1777795770 | 20° C | 50% | 1015.2 hPa | 0 mm | - | - | - |
| 1777795460 | 19.44° C | 50% | 1015.3 hPa | 0 mm | - | - | - |
* Rain latest hour (hover to see other rain measurements)
** Current wind speed in m/s (hover to see current wind gust speed)